Home   Weather   Lens   Past weeks

Flag for France Past Weather in Lens, Nord-Pas-de-Calais, France — Yesterday and Last 2 Weeks

Now
57 °F

Sunny.


Feels Like: 55 °F
Forecast: 38 / 50 °F
Wind: 12 mph from Northwest

Location: Lille Airport

Current Time: Apr 24, 2017 at 5:34:44 pm

Latest Report: Apr 24, 2017 at 5:00 pm


Visibility: 10 mi

Pressure: 29.92 "Hg

Humidity: 55%

Dew Point: 41 °F

Location of LensLocation

Past Weather in Lens — Graph

°F

Lens Temperature Yesterday

Maximum temperature yesterday: 57 °F (at 4:30 pm)
Minimum temperature yesterday: 36 °F (at 6:30 am)
Average temperature yesterday: 47 °F

High & Low Weather Summary for the Past Weeks

 TemperatureHumidityPressure
High75 °F (Apr 9, 5:30 pm)100% (Apr 23, 7:00 am)30.66 "Hg (Apr 23, 7:00 am)
Low28 °F (Apr 20, 7:00 am)21% (Apr 9, 5:30 pm)29.92 "Hg (Apr 24, 4:00 pm)
Average49 °F64%30.25 "Hg
* Reported Apr 9 4:00 pm — Apr 24 4:00 pm, Lens, Weather by CustomWeather, © 2017

Note: Actual official high and low records may vary slightly from our data, if they occured in-between our weather recording intervals... More about our weather records

Advertising

Lens Weather History for the Previous 24 Hours

Scroll right to see more
 ConditionsComfort  
Time TempWeatherWind HumidityBarometerVisibility
4:00 pm
Mon, Apr 24
57 °FSunny.13 mph51%29.92 "Hg10 mi
3:30 pm59 °FSunny.13 mph45%29.95 "Hg10 mi
3:00 pm59 °FPartly sunny.13 mph48%29.95 "HgN/A
2:30 pm59 °FMore clouds than sun.13 mph48%29.98 "HgN/A
2:00 pm59 °FMostly cloudy.9 mph45%29.98 "HgN/A
1:30 pm59 °FPassing clouds.8 mph45%30.01 "HgN/A
1:00 pm59 °FPartly sunny.10 mph45%30.01 "HgN/A
12:30 pm59 °FSunny.12 mph45%30.01 "Hg10 mi
12:00 pm55 °FPassing clouds.9 mph47%30.04 "HgN/A
11:30 am54 °FPassing clouds.10 mph47%30.04 "HgN/A
11:00 am52 °FPassing clouds.12 mph50%30.07 "HgN/A
10:30 am52 °FSunny.12 mph47%30.07 "Hg10 mi
10:00 am52 °FOvercast.10 mph47%30.07 "HgN/A
9:30 am50 °FSunny.10 mph50%30.07 "Hg10 mi
9:00 am48 °FSunny.9 mph54%30.07 "Hg10 mi
8:30 am45 °FSunny.7 mph71%30.09 "Hg10 mi
8:00 am41 °FSunny.3 mph76%30.09 "Hg10 mi
7:30 am39 °FSunny.2 mph75%30.09 "Hg10 mi
7:00 am37 °FSunny.3 mph75%30.09 "Hg10 mi
6:30 am36 °FClear.2 mph81%30.09 "Hg10 mi
6:00 am36 °FClear.No wind81%30.09 "Hg10 mi
5:30 am37 °FClear.No wind75%30.12 "Hg10 mi
4:30 am37 °FClear.No wind81%30.12 "Hg10 mi
4:00 am37 °FClear.No wind81%30.15 "Hg10 mi
3:30 am39 °FClear.1 mph75%30.15 "Hg10 mi
3:00 am37 °FClear.1 mph81%30.15 "Hg10 mi
2:30 am37 °FClear.No wind81%30.15 "Hg10 mi
2:00 am39 °FClear.No wind75%30.18 "Hg10 mi
1:30 am39 °FClear.No wind75%30.18 "Hg10 mi
1:00 am41 °FClear.No wind70%30.21 "Hg10 mi
12:30 am41 °FClear.No wind70%30.21 "Hg10 mi
12:00 am43 °FClear.No wind66%30.21 "Hg10 mi
11:30 pm
Sun, Apr 23
43 °FClear.No wind66%30.21 "Hg10 mi
11:00 pm45 °FClear.No wind61%30.24 "Hg10 mi
10:30 pm45 °FClear.No wind61%30.24 "Hg10 mi
10:00 pm46 °FClear.3 mph57%30.24 "Hg10 mi
9:30 pm48 °FClear.3 mph54%30.24 "Hg10 mi
9:00 pm50 °FClear.5 mph50%30.24 "Hg10 mi
8:30 pm52 °FSunny.5 mph47%30.24 "Hg10 mi
8:00 pm54 °FSunny.5 mph44%30.24 "Hg10 mi
7:30 pm54 °FSunny.7 mph44%30.24 "Hg10 mi
7:00 pm55 °FPassing clouds.6 mph41%30.24 "HgN/A
6:30 pm54 °FPassing clouds.5 mph41%30.24 "HgN/A
6:00 pm54 °FPassing clouds.8 mph41%30.27 "HgN/A
5:30 pm55 °FSunny.3 mph38%30.27 "Hg10 mi
5:00 pm55 °FPassing clouds.7 mph41%30.27 "HgN/A
Weather by CustomWeather, © 2017

See weather overviewHow to use our weather pages